Temperature
25 23 22 23 23 24 25 25 26 27 27 26 24 23 23 23 23 21 20 19 19 19 19 19 19 18 18 18 18 18 18 18 18 18 18 18 18 18 18 17 17 17 17 16
23 22 24 26 26 26 26 26 26 26 26 25 23 23 23 22 22 21 20 19 19 19 19 18 18 18 18 18 18 18 18 18 18 18 18 18 18 18 17 17 17 17 17 16
23 24 26 27 27 27 26 26 26 26 25 23 23 21 21 21 21 21 21 20 19 19 19 18 18 18 18 18 18 18 18 18 18 18 18 18 17 17 17 17 17 17 16 16
23 25 26 26 26 27 26 27 27 26 23 21 22 20 20 20 20 20 20 20 19 19 19 19 18 18 18 18 18 18 18 18 18 18 18 18 18 18 17 17 17 17 16 16
24 25 26 26 27 28 26 26 26 24 22 20 19 20 19 19 19 20 20 20 20 19 19 19 19 18 18 18 18 18 18 18 18 18 18 18 18 18 17 17 17 17 16 16
25 26 26 27 28 28 27 25 23 20 19 19 19 19 19 18 19 20 20 20 20 19 19 19 19 18 18 18 18 18 18 18 18 18 18 18 18 18 17 17 17 17 16 16
24 25 27 27 26 27 26 23 21 21 19 19 19 19 19 20 21 20 20 20 20 20 19 19 19 18 18 18 18 18 18 18 18 18 18 18 18 18 17 17 17 17 16 16
22 23 25 26 26 25 25 23 21 21 20 19 19 19 19 21 21 21 21 20 20 20 19 19 19 19 18 18 18 18 18 18 18 18 18 18 18 17 17 17 17 17 17 16
22 23 26 27 28 27 25 23 22 20 20 18 18 19 20 21 21 21 21 20 20 20 20 20 19 19 19 18 18 19 18 18 18 18 18 18 17 17 17 17 17 17 17 16
22 23 25 27 27 27 25 24 21 20 20 19 19 19 19 20 20 20 20 20 20 20 20 20 20 19 19 19 19 19 19 19 18 18 18 18 18 18 17 17 17 17 17 16
22 22 23 24 25 25 25 23 21 19 19 19 19 19 20 20 20 19 20 20 20 20 20 20 20 20 20 19 19 19 19 18 18 18 18 18 18 18 17 17 17 17 17 17
22 20 20 22 24 25 24 22 20 20 19 18 18 19 21 20 20 19 20 21 21 21 21 21 21 20 20 19 19 19 19 19 19 18 18 18 18 18 17 17 17 17 17 17
22 20 20 21 22 23 23 21 19 18 17 18 18 19 20 19 19 20 20 21 21 21 21 21 21 20 20 20 20 19 19 19 19 19 18 18 18 18 18 18 17 17 17 17
21 19 20 20 21 21 22 22 20 18 18 18 19 20 19 19 19 19 20 21 21 21 21 20 20 20 20 20 20 20 20 19 19 19 19 18 18 18 18 18 17 17 17 17
19 18 19 20 21 21 22 22 22 20 19 19 19 19 19 19 19 19 20 20 20 20 20 20 20 20 20 20 20 20 20 20 19 19 19 19 18 18 18 18 17 17 17 17
17 18 19 20 22 22 22 22 22 22 21 20 20 19 19 19 19 19 19 19 19 19 20 20 20 20 20 20 20 20 20 19 19 19 19 19 18 18 18 17 17 17 17 17
16 17 18 18 20 21 20 21 21 21 21 20 19 19 18 17 17 18 18 18 18 18 19 19 19 20 20 20 20 20 20 20 19 19 19 19 18 18 17 17 17 17 17 17
16 16 15 16 18 19 19 20 21 21 20 19 19 18 18 17 17 17 18 18 17 18 18 18 19 19 19 20 20 20 20 19 19 19 19 18 18 17 17 17 17 16 16 16
15 15 15 16 17 18 19 19 19 19 18 18 18 17 17 17 16 16 16 17 17 17 18 18 18 18 19 19 19 19 19 19 18 18 18 18 18 17 17 17 17 16 16 16
15 15 15 16 17 17 18 18 18 18 17 18 17 17 17 17 16 15 15 16 16 17 17 17 17 17 17 17 18 18 18 18 17 17 17 17 17 17 17 16 16 16 16 16
14 14 15 16 16 17 17 18 18 18 17 17 17 17 17 16 15 15 15 15 15 16 16 16 16 16 16 16 17 17 16 16 16 16 17 16 16 16 16 16 16 15 15 15
14 14 15 15 16 16 16 17 17 16 16 16 16 16 16 15 15 14 15 14 15 15 15 15 15 15 15 15 16 15 15 15 15 16 16 15 15 15 15 15 15 14 14 14
14 14 14 14 15 14 15 15 16 17 16 16 16 16 15 14 14 14 14 14 14 14 14 14 14 14 14 14 15 14 14 14 14 14 14 14 14 14 14 14 13 13 13 13
14 13 13 13 14 14 15 16 16 17 16 16 16 15 15 14 14 13 13 14 14 14 14 14 14 14 13 13 13 13 13 13 14 14 13 13 13 13 13 13 13 13 13 13
14 14 13 13 14 14 15 15 16 16 16 15 15 15 14 14 14 13 13 13 13 13 13 13 13 13 13 13 12 12 12 13 13 13 13 12 12 12 12 13 12 12 12 12
13 13 14 14 14 14 14 15 16 15 15 15 14 14 14 14 13 13 13 13 13 13 12 12 12 12 12 12 12 12 12 12 12 12 12 12 12 12 12 12 12 12 12 12
Wind_Speed
5 2 8 12 10 12 11 12 12 9 4 2 2 2 3 5 7 9 9 10 11 10 8 8 9 10 11 11 12 12 12 11 10 8 8 7 6 6 5 5 9 10 10 10
4 9 16 13 14 14 14 12 10 6 3 3 3 2 0 2 5 8 11 11 11 10 9 9 9 10 10 12 12 12 12 11 10 8 7 6 6 5 5 4 6 9 9 9
11 13 11 12 14 14 13 9 6 4 2 6 5 4 3 2 1 2 7 10 12 14 14 12 11 10 11 12 14 13 12 11 10 9 7 6 5 4 3 4 4 5 9 8
10 14 14 15 16 13 10 8 4 1 3 3 4 1 5 3 2 2 5 7 10 12 12 13 12 11 12 12 12 11 12 12 11 10 10 11 8 6 6 5 5 4 7 8
9 9 10 13 15 12 8 5 1 1 4 4 5 2 6 3 4 4 4 7 9 12 13 14 14 13 12 11 11 11 11 11 10 10 11 10 7 5 5 5 6 5 4 7
13 12 9 11 14 10 6 2 6 6 6 4 2 1 6 4 5 4 4 6 9 12 12 11 11 10 9 9 10 11 12 11 10 10 10 10 10 8 8 7 7 5 3 4
11 14 12 10 10 11 4 2 4 6 5 2 3 1 8 9 7 7 8 8 9 11 12 11 11 11 11 11 12 12 12 11 11 11 10 10 10 10 11 9 8 6 4 4
9 11 10 8 10 9 7 7 7 5 5 3 2 4 8 9 7 5 6 8 10 11 12 13 13 13 12 13 13 13 13 12 12 11 10 9 9 8 7 8 8 8 6 6
9 10 8 8 8 7 6 5 9 7 3 3 3 5 8 6 4 2 3 7 11 13 14 14 13 13 13 13 13 13 14 12 12 12 11 9 9 9 9 8 8 7 6 7
7 7 9 8 4 4 6 6 6 6 5 2 3 4 5 6 5 3 4 7 8 11 13 14 14 14 13 13 12 12 12 12 11 11 11 11 9 9 9 8 8 7 7 7
3 6 8 3 3 7 2 2 5 5 6 6 4 6 6 9 7 5 6 7 9 11 13 14 13 13 13 12 12 12 12 11 11 11 10 10 9 9 8 8 9 9 7 8
1 4 5 8 6 4 4 5 7 6 3 6 5 6 5 6 5 5 5 6 8 9 10 12 13 12 12 13 13 13 13 12 12 11 10 10 9 9 9 9 9 9 9 9
2 3 1 7 6 4 3 2 5 7 6 5 6 5 3 2 3 3 4 5 6 8 8 8 10 12 13 13 13 14 14 14 12 11 11 10 10 10 10 9 8 8 9 9
2 2 5 8 8 4 3 3 5 6 5 5 7 7 5 5 5 4 4 5 6 7 8 8 8 10 12 13 13 14 14 13 12 11 11 11 11 11 10 9 8 8 8 9
4 0 3 6 5 4 4 4 5 5 8 8 8 9 10 9 7 5 4 4 5 5 6 7 8 8 9 10 11 12 13 12 12 12 12 12 11 9 9 9 8 8 8 9
2 0 3 4 4 2 3 4 5 5 5 5 6 6 6 5 4 3 4 4 4 4 5 4 5 6 7 9 11 11 11 12 11 12 12 10 9 9 9 9 9 8 8 8
1 2 1 4 5 3 3 4 5 3 3 6 6 7 7 6 5 5 5 5 5 5 4 4 2 3 3 4 7 9 10 10 10 11 10 9 8 9 9 8 8 9 9 8
5 3 3 2 1 4 5 4 2 5 3 1 4 7 10 10 8 7 5 7 6 6 6 5 5 5 3 2 3 6 7 8 9 8 7 7 8 8 6 6 7 7 6 7
5 5 4 3 4 3 4 3 1 4 2 2 7 10 12 13 12 9 7 8 8 8 8 7 6 6 5 4 3 6 7 6 6 6 6 7 8 8 7 7 6 6 6 7
2 3 4 3 4 6 5 4 2 5 1 1 7 11 10 9 6 3 4 8 10 10 9 8 7 8 8 6 6 9 7 6 4 3 3 3 4 6 7 7 6 5 6 6
1 1 3 4 4 4 2 4 2 4 7 4 7 8 6 4 6 8 9 10 10 11 11 10 10 10 8 7 9 10 9 6 4 5 5 5 4 3 3 3 3 3 3 3
3 2 2 3 3 4 3 2 4 5 4 6 7 9 13 13 13 12 11 11 11 11 11 10 11 11 10 9 11 11 9 6 6 7 7 6 5 3 2 3 2 2 3 2
2 3 2 2 2 2 2 2 2 5 7 6 8 11 16 15 14 13 11 11 11 11 10 9 11 11 10 10 10 11 7 6 7 8 7 5 5 4 3 3 2 2 2 2
2 0 2 1 0 1 3 3 4 8 9 9 12 14 15 15 14 13 11 10 10 10 9 9 10 11 10 9 10 8 7 7 8 8 6 5 5 5 4 3 2 2 2 2
2 2 2 2 1 3 5 5 7 10 12 14 14 14 14 15 14 12 11 10 10 9 8 8 9 9 8 8 8 7 7 8 8 7 6 5 5 5 5 4 3 2 1 2
2 2 3 3 4 4 4 5 10 14 13 14 17 16 13 13 13 12 10 9 9 8 8 8 8 8 7 7 7 7 7 7 8 7 6 5 4 4 3 3 4 5 3 3
Wind_Direction
257 222 249 247 229 231 259 276 279 282 277 131 166 185 181 165 155 154 160 161 166 170 171 165 167 169 166 168 167 163 161 161 156 151 147 145 150 150 146 146 146 141 139 135
296 260 250 257 263 262 266 273 281 300 359 82 92 89 140 148 180 172 166 165 166 164 164 172 177 181 175 174 172 170 166 166 164 161 156 152 146 149 152 145 149 150 143 142
230 251 263 267 271 273 272 259 258 256 61 48 78 12 333 324 44 159 173 169 170 170 169 173 180 182 177 175 171 172 170 167 165 157 140 130 115 109 119 146 157 161 153 147
243 255 262 269 273 271 275 266 239 245 70 9 43 303 297 302 309 212 192 180 177 176 171 174 178 182 186 183 174 168 169 167 168 159 155 155 157 160 175 171 168 165 159 155
237 243 251 262 266 267 256 260 291 71 102 63 23 71 294 324 283 254 204 192 189 180 176 177 179 182 185 183 172 166 163 167 169 167 163 161 159 162 157 155 157 163 163 163
241 255 248 253 269 265 250 353 33 49 68 45 317 106 282 251 246 264 238 206 192 183 180 177 174 168 176 175 170 167 169 173 173 170 169 168 166 162 157 164 167 170 169 169
261 267 262 258 276 290 294 76 12 351 14 260 256 203 256 258 256 247 228 211 189 181 177 174 170 173 176 174 173 174 176 179 179 176 176 176 174 170 172 173 176 172 171 181
225 264 253 241 225 239 253 162 173 212 222 236 264 245 261 270 275 265 214 196 180 179 181 179 180 181 183 182 180 179 181 183 183 182 183 182 177 173 177 179 177 181 185 190
203 240 250 239 236 207 229 220 180 149 137 133 255 275 293 285 285 287 182 175 182 184 185 182 182 183 184 186 187 184 183 184 187 187 184 185 183 179 180 181 179 182 188 190
192 241 267 260 277 281 194 181 110 125 153 199 247 251 244 262 254 241 201 185 187 187 184 181 182 186 187 186 185 182 183 189 189 189 190 193 190 187 181 176 181 184 185 182
184 210 276 304 226 243 253 122 127 130 148 155 207 254 226 222 225 221 213 195 189 187 186 182 183 185 184 180 179 182 185 188 187 186 189 188 187 187 179 179 184 184 183 178
214 158 250 257 255 219 184 171 147 150 184 156 168 252 280 207 216 212 206 193 188 184 185 182 180 179 180 182 183 186 188 190 191 189 187 188 183 182 182 187 188 181 179 181
352 109 345 328 332 359 94 130 140 129 125 153 166 237 274 188 206 216 192 185 179 174 179 182 179 180 184 186 187 189 191 193 192 187 186 188 188 188 191 192 187 181 179 181
38 128 180 213 234 236 207 189 155 129 147 184 199 197 236 212 201 206 187 183 174 162 169 175 182 185 187 189 188 189 192 192 189 187 187 191 195 195 196 192 186 184 181 181
51 248 251 244 245 224 223 203 181 177 178 180 202 192 211 209 187 193 178 163 146 148 158 169 183 186 188 188 190 191 193 191 188 186 192 199 200 197 193 191 190 189 188 191
44 14 331 308 288 257 266 229 209 201 183 179 170 215 212 193 156 129 123 124 129 139 149 162 181 187 189 191 191 191 192 192 185 186 195 196 192 192 196 199 194 192 196 198
186 132 28 287 300 359 273 239 217 196 171 161 189 207 148 134 133 139 125 105 103 113 117 114 125 165 168 178 183 184 187 180 178 185 189 189 190 196 202 203 199 199 200 199
170 153 154 206 27 232 248 294 158 121 102 122 152 144 133 126 103 77 87 101 95 96 94 85 78 69 61 89 144 164 161 164 174 180 185 184 185 193 194 194 201 205 203 205
159 155 151 160 189 252 286 310 83 109 66 80 125 126 124 119 88 57 56 84 93 90 85 79 76 75 70 65 94 125 131 146 163 178 182 183 187 188 186 192 198 201 203 210
78 127 145 153 174 216 239 262 242 113 140 181 135 144 144 129 116 132 104 92 86 79 74 70 72 71 67 59 73 86 92 105 122 145 151 158 172 177 183 192 195 197 198 208
4 53 163 175 203 231 248 257 199 165 202 174 138 136 126 113 128 129 111 96 88 81 75 72 70 65 55 56 72 75 73 77 85 92 94 97 108 136 157 162 166 162 169 170
216 185 175 152 184 234 313 265 187 192 152 139 130 120 107 106 111 113 105 96 88 81 74 72 72 65 54 58 71 70 59 48 58 69 71 72 78 84 94 107 112 120 130 137
232 205 178 179 200 270 319 277 220 126 118 118 118 117 116 116 115 111 103 96 88 83 77 73 77 71 57 53 66 70 55 52 61 63 60 58 57 59 64 87 114 126 132 151
266 154 114 96 304 319 15 41 78 102 103 110 117 116 114 114 114 110 105 98 92 86 81 76 76 73 60 50 56 60 54 58 66 63 57 57 58 51 49 59 87 109 118 126
233 171 144 143 202 61 48 70 89 96 97 100 104 107 112 115 112 111 107 103 99 93 86 82 82 79 68 57 54 50 52 60 61 58 54 50 52 59 55 50 58 84 97 139
294 192 169 196 195 142 129 108 106 106 106 110 112 105 104 110 110 106 103 103 101 98 93 89 84 80 70 61 53 42 45 59 61 53 48 44 45 48 48 47 32 34 58 59
Height
1493 1498 1502 1496 1494 1495 1493 1494 1492 1481 1470 1475 1481 1482 1480 1479 1481 1483 1485 1487 1490 1492 1494 1495 1498 1501 1504 1507 1510 1514 1519 1523 1527 1531 1534 1537 1539 1542 1545 1546 1548 1549 1550 1551
1497 1499 1488 1485 1485 1486 1488 1491 1487 1479 1472 1476 1482 1484 1480 1479 1481 1481 1482 1485 1487 1490 1493 1495 1497 1500 1502 1504 1508 1512 1516 1521 1525 1529 1533 1536 1538 1541 1544 1545 1547 1548 1549 1550
1497 1487 1481 1483 1483 1484 1483 1485 1482 1481 1479 1480 1484 1492 1487 1482 1481 1483 1484 1484 1486 1488 1490 1493 1496 1498 1500 1502 1506 1511 1515 1519 1523 1528 1532 1535 1538 1540 1542 1544 1545 1547 1548 1549
1488 1479 1480 1482 1481 1479 1485 1472 1472 1475 1486 1499 1493 1508 1494 1487 1483 1483 1485 1485 1486 1488 1490 1492 1494 1497 1499 1502 1506 1509 1513 1519 1523 1527 1530 1532 1535 1537 1540 1542 1544 1546 1547 1548
1483 1475 1477 1480 1474 1470 1474 1468 1471 1476 1489 1502 1502 1508 1502 1490 1487 1483 1482 1483 1485 1486 1488 1490 1492 1495 1498 1501 1505 1509 1513 1518 1522 1525 1528 1531 1533 1536 1539 1541 1543 1544 1546 1547
1473 1468 1470 1469 1465 1463 1465 1470 1478 1488 1498 1515 1510 1510 1506 1493 1485 1481 1480 1481 1483 1485 1487 1489 1491 1494 1497 1501 1505 1508 1512 1516 1520 1523 1526 1529 1532 1535 1537 1539 1541 1543 1545 1546
1477 1468 1462 1462 1466 1462 1464 1484 1505 1510 1519 1520 1508 1508 1501 1480 1476 1477 1477 1478 1481 1483 1486 1488 1490 1493 1496 1500 1503 1507 1510 1514 1517 1521 1524 1527 1530 1533 1535 1537 1539 1541 1543 1544
1486 1482 1462 1456 1460 1466 1466 1478 1505 1516 1520 1518 1510 1509 1491 1474 1472 1472 1472 1475 1478 1481 1484 1486 1488 1492 1495 1498 1501 1504 1508 1511 1515 1518 1522 1525 1528 1531 1534 1536 1538 1540 1542 1543
1478 1475 1452 1449 1448 1454 1464 1471 1474 1495 1505 1518 1514 1502 1485 1472 1471 1470 1471 1473 1475 1478 1482 1484 1487 1490 1493 1496 1499 1502 1506 1509 1513 1516 1520 1523 1526 1529 1532 1534 1537 1539 1540 1542
1462 1470 1455 1447 1446 1447 1452 1460 1477 1493 1510 1518 1513 1505 1497 1479 1473 1472 1472 1472 1474 1476 1480 1482 1485 1488 1491 1494 1497 1501 1504 1507 1510 1514 1517 1521 1524 1527 1530 1532 1534 1536 1538 1540
1456 1468 1462 1454 1455 1457 1455 1462 1471 1485 1492 1510 1517 1505 1475 1473 1471 1471 1470 1470 1472 1475 1477 1479 1482 1485 1489 1492 1495 1498 1502 1505 1507 1511 1515 1518 1521 1525 1527 1529 1532 1534 1536 1537
1454 1465 1471 1460 1448 1444 1449 1457 1468 1486 1494 1497 1505 1498 1466 1466 1466 1467 1467 1468 1470 1472 1475 1477 1480 1483 1487 1490 1493 1496 1499 1502 1505 1509 1512 1515 1518 1521 1524 1526 1529 1531 1533 1535
1455 1466 1478 1473 1465 1453 1454 1456 1462 1472 1485 1494 1501 1491 1465 1464 1464 1464 1465 1466 1468 1470 1474 1477 1479 1481 1484 1487 1490 1493 1496 1499 1503 1506 1509 1512 1514 1517 1520 1523 1526 1528 1530 1532
1452 1464 1473 1478 1471 1460 1458 1457 1460 1469 1484 1488 1484 1477 1468 1464 1463 1463 1463 1465 1466 1468 1471 1475 1478 1480 1482 1484 1487 1490 1494 1497 1500 1503 1506 1509 1511 1514 1517 1520 1522 1525 1526 1528
1455 1465 1462 1458 1453 1453 1453 1453 1454 1460 1465 1473 1471 1470 1465 1461 1461 1462 1462 1464 1466 1467 1470 1473 1476 1477 1480 1483 1485 1488 1491 1494 1498 1501 1503 1506 1509 1512 1514 1517 1519 1521 1523 1525
1457 1463 1461 1459 1450 1449 1450 1448 1449 1451 1454 1459 1462 1465 1457 1459 1461 1462 1463 1465 1466 1467 1469 1471 1473 1475 1477 1480 1482 1485 1489 1491 1494 1497 1500 1503 1506 1508 1510 1513 1515 1517 1519 1521
1459 1462 1466 1467 1455 1452 1459 1451 1448 1449 1449 1453 1459 1457 1455 1459 1461 1462 1463 1464 1465 1467 1468 1470 1471 1473 1474 1477 1479 1482 1485 1488 1491 1493 1496 1499 1502 1504 1506 1509 1511 1512 1514 1516
1456 1461 1467 1468 1464 1472 1458 1445 1443 1445 1448 1447 1449 1451 1453 1457 1461 1463 1464 1465 1467 1467 1468 1469 1470 1471 1473 1474 1476 1479 1482 1485 1488 1490 1493 1496 1499 1500 1502 1504 1506 1507 1509 1510
1450 1457 1464 1470 1471 1464 1452 1447 1446 1448 1454 1449 1450 1453 1456 1458 1462 1467 1468 1468 1468 1468 1469 1470 1471 1472 1472 1473 1475 1477 1479 1482 1485 1487 1489 1491 1494 1496 1498 1500 1501 1503 1505 1506
1450 1452 1460 1465 1468 1469 1453 1445 1445 1449 1459 1451 1450 1453 1455 1456 1466 1472 1471 1470 1470 1469 1470 1471 1472 1472 1472 1473 1475 1476 1477 1480 1482 1484 1487 1489 1492 1494 1495 1497 1498 1499 1500 1501
1458 1458 1458 1461 1463 1456 1447 1443 1445 1458 1456 1450 1450 1452 1455 1457 1463 1470 1471 1472 1472 1472 1472 1473 1473 1473 1474 1475 1476 1476 1478 1480 1482 1483 1485 1487 1489 1491 1492 1493 1494 1495 1496 1497
1458 1459 1458 1459 1463 1460 1446 1444 1447 1446 1444 1447 1450 1452 1455 1459 1465 1469 1471 1473 1474 1474 1475 1475 1475 1475 1477 1477 1477 1478 1479 1481 1482 1483 1484 1486 1487 1488 1489 1489 1490 1491 1492 1493
1454 1453 1452 1454 1455 1448 1445 1445 1443 1441 1444 1448 1451 1454 1456 1462 1468 1471 1473 1475 1476 1477 1478 1479 1478 1478 1479 1480 1480 1480 1482 1483 1483 1484 1484 1485 1486 1486 1487 1487 1488 1488 1490 1491
1450 1448 1450 1452 1449 1446 1445 1444 1444 1443 1446 1450 1453 1457 1460 1464 1469 1472 1474 1477 1479 1480 1481 1482 1482 1482 1483 1484 1484 1484 1485 1485 1485 1485 1486 1486 1486 1486 1486 1486 1486 1487 1488 1488
1449 1449 1450 1451 1449 1447 1447 1446 1446 1448 1450 1454 1457 1461 1464 1468 1471 1474 1477 1480 1481 1483 1484 1485 1485 1486 1487 1488 1488 1488 1488 1488 1487 1487 1487 1486 1486 1486 1486 1486 1486 1486 1486 1487
1448 1448 1449 1449 1446 1447 1449 1449 1449 1451 1455 1458 1461 1465 1469 1471 1474 1477 1480 1482 1484 1486 1488 1489 1489 1490 1491 1491 1491 1491 1491 1490 1489 1488 1488 1488 1487 1487 1487 1486 1486 1486 1486 1486